Wind_Speed
12 13 13 11 9 7 7 8 9 9 9 10 10 9 7 6 5 5 4 4 4 3 4 4 6 6 5 7 10 8 9 14 23 29 24 17 22 19 17 16 14 12 10 8 6 5 7 11 11 10 7 6 6 3 4 4 4 4 4 4 3 4 4 5 7 7 4 3 4 5 5 5 3 2 2 1 4 2 1 2 2 4 4 3 6 4 14 25
10 11 11 11 9 7 7 7 7 8 8 8 8 8 7 6 4 3 2 2 2 2 3 6 8 6 6 7 10 9 7 10 23 28 23 20 21 16 15 15 10 8 8 5 5 7 7 6 7 9 7 3 4 4 3 4 5 4 3 3 3 5 3 4 7 6 2 3 6 5 4 5 5 4 3 2 2 1 1 4 3 5 5 1 2 11 21 24
9 9 9 9 8 8 7 6 7 7 7 5 5 6 7 6 4 3 1 1 1 2 5 9 11 10 10 9 10 8 6 8 16 17 22 23 19 15 17 15 8 7 8 5 4 8 9 7 8 8 5 4 3 4 4 4 4 2 4 3 4 5 2 1 5 7 4 5 8 4 3 4 4 4 3 3 3 2 5 6 2 5 6 3 5 13 19 21
8 8 8 7 6 6 6 6 6 6 5 4 3 4 6 5 4 3 1 0 1 3 5 10 11 10 10 10 9 6 4 7 7 13 21 24 20 16 17 15 9 7 7 4 5 10 12 12 13 9 5 4 5 4 4 4 2 2 3 2 5 4 3 0 3 4 2 4 7 5 4 2 4 2 2 5 4 4 8 8 8 9 9 8 8 12 17 19
7 8 7 7 5 4 5 6 6 5 4 4 3 4 5 5 4 3 1 2 2 3 4 7 12 15 11 5 5 5 3 5 5 16 20 21 21 14 15 16 9 6 6 3 8 11 10 10 10 7 6 4 6 5 4 4 2 4 2 2 3 3 4 1 1 4 4 5 6 6 4 3 3 1 3 8 5 6 6 6 8 8 10 13 13 16 16 17
6 7 7 7 6 5 6 6 6 5 5 4 4 5 6 5 4 3 1 3 4 4 3 2 7 14 14 12 6 1 4 3 8 17 17 19 21 14 13 16 9 6 5 4 8 9 7 8 8 5 4 3 4 4 2 5 3 5 1 2 1 2 4 1 2 3 4 6 6 6 4 3 4 3 3 8 10 8 5 5 7 7 11 17 17 17 15 16
5 6 7 9 10 8 8 8 7 5 5 4 4 5 6 4 4 3 0 2 4 5 5 6 4 10 9 10 11 10 8 2 11 16 15 17 20 16 12 13 10 3 2 4 6 6 5 7 6 4 5 4 2 3 3 6 5 6 2 2 3 2 3 2 2 3 4 5 6 4 4 4 6 5 1 7 14 7 3 4 5 8 13 16 14 15 16 18
4 5 6 8 10 10 10 9 7 5 4 5 3 4 6 6 5 3 1 2 3 3 5 7 7 11 10 7 5 8 5 4 14 15 14 15 18 19 12 11 11 2 5 9 5 5 5 7 5 4 5 3 2 3 3 5 7 5 3 1 1 3 3 3 5 5 3 3 2 6 4 3 5 3 1 10 14 5 1 2 3 7 12 13 11 14 16 17
4 4 4 6 7 9 10 10 8 6 4 3 2 4 5 7 6 4 4 5 5 2 3 3 9 12 9 4 5 5 3 6 14 13 13 14 15 18 17 17 14 5 10 12 7 6 3 2 3 4 5 3 4 3 3 4 3 2 3 1 3 3 3 3 4 4 2 2 3 5 3 5 2 1 5 12 10 3 3 4 4 7 9 9 9 13 16 16
4 4 4 5 5 6 7 8 7 5 3 1 2 3 5 7 7 6 8 11 10 6 3 3 10 10 3 2 7 5 4 8 13 11 11 13 13 16 22 23 17 11 11 12 11 9 4 6 6 7 8 4 4 3 3 3 2 3 5 5 6 2 3 2 1 0 0 1 3 2 4 4 1 1 5 8 4 4 5 3 4 5 8 9 9 12 16 17
4 4 3 3 4 4 5 5 4 3 2 0 2 2 5 7 7 6 8 10 9 7 5 4 9 11 9 8 7 4 4 9 11 11 10 12 15 18 22 23 18 14 13 14 14 11 11 12 12 7 4 3 3 4 4 2 3 4 6 5 5 5 2 2 1 2 2 0 3 3 4 3 0 3 7 6 1 5 5 5 5 6 8 9 9 10 14 17
4 4 3 3 2 2 3 2 2 2 1 1 2 3 5 6 6 5 5 5 7 8 6 5 4 4 11 13 6 2 6 9 9 9 10 12 17 19 19 20 20 16 13 14 12 10 10 8 11 7 1 4 3 3 2 2 4 3 5 4 4 8 2 3 1 1 1 0 4 3 3 4 4 8 10 4 3 5 4 5 6 7 8 7 8 8 11 17
4 3 3 2 2 1 2 1 1 0 1 2 2 4 5 4 3 2 3 5 6 8 6 8 6 2 4 6 2 4 6 9 8 6 10 12 14 17 18 18 21 19 16 16 12 9 9 8 16 11 3 6 3 0 3 4 4 1 4 4 1 7 4 5 2 2 2 2 4 2 4 6 7 12 9 3 6 6 4 8 7 8 7 7 7 7 9 15
4 3 2 1 1 1 1 0 1 1 1 3 3 3 3 2 1 2 4 5 6 7 4 8 9 2 5 2 1 6 6 7 7 6 10 10 9 11 14 16 17 19 18 19 16 13 14 17 21 12 3 5 3 1 5 6 4 1 2 2 1 3 4 4 1 2 3 1 1 2 3 7 8 10 7 5 8 8 8 10 9 8 7 7 7 7 9 13
3 2 1 0 1 1 0 1 2 2 2 3 3 2 2 1 1 2 3 4 6 6 2 5 7 3 6 2 1 5 6 7 10 12 13 9 8 8 8 11 13 15 16 16 14 13 13 15 15 7 1 3 3 5 4 4 4 3 1 3 2 1 5 6 3 2 2 0 2 2 3 8 9 9 5 5 7 9 10 10 9 9 9 8 8 8 9 12
2 2 1 1 1 1 1 2 2 2 3 4 3 3 3 4 3 2 2 4 4 5 2 4 6 4 5 1 1 5 6 8 11 13 11 9 11 8 4 5 7 8 9 11 10 9 13 13 8 3 2 4 5 5 3 3 4 3 1 3 3 2 4 6 3 1 2 1 2 2 4 8 7 5 2 5 8 9 9 10 10 10 10 9 8 8 8 10
2 1 1 2 2 2 1 2 2 2 4 5 5 4 4 5 3 2 2 3 3 3 4 4 5 4 4 2 2 4 5 7 10 10 8 9 11 9 5 2 3 4 4 8 9 7 11 9 2 1 5 4 3 4 3 3 4 3 3 1 3 2 2 5 4 3 4 1 3 3 6 12 12 7 4 6 8 9 10 12 11 10 9 8 8 8 9 10
2 2 2 2 3 2 1 1 2 4 5 6 7 7 7 5 4 2 1 1 2 3 3 5 6 3 2 4 2 4 7 7 9 10 8 7 7 9 9 5 3 4 4 6 9 7 7 5 2 2 5 4 4 5 2 2 3 3 3 2 3 3 3 4 5 2 3 2 5 4 8 16 16 12 9 6 8 10 12 12 10 9 9 8 8 8 10 11
1 1 2 1 2 1 1 2 3 4 4 5 6 6 5 5 4 5 8 7 1 2 2 3 4 2 1 3 4 6 5 5 8 10 10 8 5 6 8 8 5 4 3 2 5 6 3 4 5 4 2 3 2 4 4 3 5 5 4 3 3 5 5 6 6 3 1 3 7 7 10 14 14 13 11 6 8 10 11 10 8 9 8 8 8 9 11 10
1 1 4 3 1 2 2 2 3 3 3 2 1 2 1 3 4 5 10 11 3 2 1 2 0 1 1 3 6 7 2 3 7 11 14 11 6 3 5 8 7 6 5 1 3 3 3 5 3 2 3 4 4 5 4 2 4 4 2 3 5 5 5 6 5 3 1 2 7 6 8 14 14 14 12 6 7 9 11 10 10 10 9 9 9 11 12 12
1 4 5 4 3 2 1 2 2 3 3 4 4 3 1 1 2 1 2 4 0 1 1 2 2 0 1 2 7 6 1 3 6 13 17 12 4 2 3 6 6 5 3 2 3 3 5 5 2 5 6 5 3 4 5 3 3 3 3 3 4 4 6 7 3 3 2 2 5 4 10 17 15 13 11 4 7 9 11 11 12 12 11 9 10 13 13 11
5 7 7 6 4 2 1 1 1 4 6 6 3 2 2 3 3 3 3 2 1 0 2 1 1 3 2 2 6 6 3 5 6 11 18 13 5 1 2 6 6 2 3 3 2 5 5 2 5 5 4 4 3 4 4 3 4 3 2 2 3 4 5 7 2 2 3 1 5 7 11 18 16 12 9 4 7 7 8 10 11 10 10 10 11 12 12 11
8 8 8 9 8 6 4 4 3 3 6 5 2 5 5 6 7 4 3 3 1 2 3 3 2 3 4 2 5 6 5 4 2 8 17 13 5 2 3 6 5 2 5 4 2 2 1 3 5 4 6 6 3 3 4 3 2 2 2 1 4 3 2 4 3 3 3 3 5 7 8 13 12 7 6 3 5 5 4 7 9 8 10 12 10 9 10 12
11 7 5 6 8 9 7 6 4 3 5 5 7 9 9 8 6 3 3 3 1 1 1 0 2 0 1 2 6 5 4 2 1 6 14 9 2 2 3 4 3 3 3 2 5 5 1 2 3 5 4 5 3 1 3 3 2 3 4 5 4 2 1 5 5 6 6 2 2 5 6 7 6 5 5 4 3 5 4 6 9 9 10 11 9 10 12 13
13 6 2 1 4 8 9 6 4 8 11 10 11 11 9 6 3 2 3 3 1 2 1 0 0 1 1 3 7 2 2 1 0 4 9 7 2 1 2 2 3 3 3 1 5 4 1 2 3 4 2 2 3 3 1 3 2 4 4 6 4 1 3 6 7 7 5 3 1 3 5 5 5 5 7 4 5 6 4 5 10 10 9 8 9 13 13 13
13 8 5 6 5 8 9 5 3 6 6 6 10 9 6 5 3 1 3 4 2 4 1 0 1 1 1 5 7 1 2 2 2 2 6 6 2 2 2 1 2 3 5 1 3 2 1 2 2 3 3 4 2 2 3 4 2 4 3 4 3 1 4 6 5 2 2 3 3 3 1 5 6 6 7 4 6 9 6 6 11 10 9 8 10 12 12 12
13 11 10 10 7 7 7 3 2 2 0 2 7 6 4 4 1 1 3 5 3 2 1 1 1 3 1 3 5 1 0 4 2 3 6 6 2 2 2 2 0 1 2 2 2 1 2 2 2 3 4 3 2 2 4 6 4 3 2 2 1 3 5 4 2 2 2 3 4 3 2 2 6 6 5 3 6 10 8 8 10 9 10 10 11 12 12 13
12 12 11 9 8 6 6 4 2 2 1 3 6 4 3 1 3 1 4 3 2 0 2 1 1 3 2 3 4 3 1 3 2 1 4 7 4 2 2 1 4 2 1 2 3 3 3 3 3 3 3 1 3 3 5 7 1 4 4 2 3 3 3 2 4 3 1 3 4 4 2 0 6 6 2 3 4 8 9 9 9 9 9 10 11 12 13 13
9 9 9 8 7 7 6 5 4 2 1 4 6 3 1 2 3 3 5 1 2 1 1 2 1 2 4 4 5 4 2 2 2 3 5 6 4 4 3 2 6 5 1 2 3 4 1 2 5 5 4 4 4 3 6 7 3 4 2 1 1 3 2 3 4 3 2 3 4 4 2 1 6 6 3 1 2 6 8 8 8 9 9 9 10 11 12 11
6 7 7 8 6 5 5 5 5 2 1 4 6 2 2 3 3 6 3 2 1 1 0 1 1 2 4 3 4 5 3 2 3 4 4 2 4 6 4 2 5 5 1 3 1 4 1 1 2 3 3 4 3 2 4 6 4 4 3 2 1 3 3 3 2 3 3 3 5 5 2 2 3 6 4 3 4 5 6 7 8 9 9 9 9 10 11 9
6 7 7 7 5 4 3 3 4 4 3 5 6 1 3 2 5 6 1 4 0 2 1 1 2 4 5 1 1 4 3 4 5 4 3 3 5 6 4 1 3 3 3 4 2 4 4 1 2 1 1 2 3 2 0 2 1 3 3 3 3 4 3 3 4 3 2 4 5 4 3 1 3 7 6 6 6 6 6 7 10 10 10 10 9 9 9 8
3 4 5 4 3 3 3 2 3 5 6 7 5 1 3 3 2 2 3 3 2 2 1 1 2 3 4 1 1 3 3 3 4 4 2 2 3 3 2 2 1 3 4 2 2 5 3 3 2 2 1 2 3 2 3 2 3 4 3 4 4 4 4 4 4 1 1 4 3 2 4 2 6 9 10 11 12 10 9 9 11 11 11 11 10 9 7 6
2 2 1 1 1 3 2 2 4 7 9 8 2 4 7 4 2 3 2 3 1 1 1 1 2 1 2 2 1 2 2 0 3 3 1 1 2 2 1 2 3 1 2 2 1 4 4 3 2 1 1 1 3 2 2 2 3 3 2 3 2 2 4 4 4 3 4 4 2 2 2 3 6 7 10 14 14 12 9 9 10 10 11 11 10 9 8 8
5 5 3 3 3 3 3 4 6 9 8 5 3 5 5 1 4 3 2 3 2 2 2 1 2 2 1 1 2 2 0 1 2 2 1 2 2 1 2 2 1 3 3 1 0 0 1 4 2 1 2 1 2 2 2 2 2 1 2 3 2 3 1 3 3 2 6 5 3 3 1 4 4 4 7 10 10 9 8 7 7 8 10 9 9 9 10 11
6 6 6 6 6 5 5 6 7 8 6 3 6 6 3 3 4 1 2 4 1 2 1 0 2 2 2 2 2 1 1 1 1 2 1 0 2 3 2 3 2 3 3 1 2 1 1 5 3 2 2 1 1 1 3 4 2 1 2 3 1 3 3 1 3 4 2 4 3 2 3 6 5 8 11 7 6 8 7 5 5 8 9 6 7 10 10 10
4 4 6 7 6 6 5 5 5 5 4 5 6 3 4 4 2 3 3 1 0 1 1 2 2 1 3 4 3 3 1 1 2 2 1 2 3 3 2 2 3 3 4 2 2 1 0 4 3 2 2 3 0 2 1 2 0 0 1 1 3 3 5 3 2 1 3 2 4 1 4 7 5 8 10 6 7 8 6 5 5 8 8 6 8 10 9 10
3 3 4 7 6 5 4 3 4 4 3 7 5 3 4 3 2 3 2 0 1 2 2 2 2 1 2 3 3 3 2 1 2 2 2 3 2 3 2 0 1 2 3 2 2 2 1 4 4 1 1 1 1 2 2 2 2 3 1 3 2 1 4 4 1 4 3 2 4 0 4 7 4 5 6 7 8 9 7 7 8 8 8 8 9 10 10 11
2 4 4 6 6 3 3 3 4 4 5 6 1 3 3 2 1 2 2 1 1 2 3 2 3 1 2 1 2 2 1 1 2 2 1 2 2 2 4 2 2 2 1 2 0 0 2 2 5 1 1 3 2 1 3 3 3 3 2 2 2 1 1 1 0 1 3 4 5 3 4 6 5 5 5 7 8 10 9 8 9 11 10 9 10 11 12 11
1 2 2 5 5 4 3 2 3 5 6 3 2 2 1 1 1 1 2 1 1 2 1 3 2 0 2 3 2 2 1 2 1 1 1 1 2 1 3 2 1 2 3 1 2 1 2 1 4 2 2 3 3 0 2 1 3 3 1 1 2 2 3 1 1 2 1 3 5 4 4 5 7 6 4 8 11 11 11 9 9 11 11 10 10 11 11 11
1 1 1 3 4 4 3 3 4 6 4 2 4 2 1 2 2 1 1 1 1 1 1 3 1 1 2 3 2 1 0 2 3 2 2 2 2 2 2 1 3 2 2 2 2 0 2 2 4 4 2 1 1 3 5 4 2 2 1 0 1 1 2 1 1 2 3 2 3 3 4 8 7 3 4 10 10 10 10 9 9 10 11 12 12 12 12 12
2 2 2 3 4 2 4 5 4 3 3 2 2 2 0 0 1 1 2 0 0 1 1 2 3 2 2 2 2 1 1 1 2 2 2 2 2 1 2 2 2 3 1 2 2 0 1 2 3 3 3 3 3 2 3 5 5 4 4 4 3 3 3 0 3 1 2 2 4 2 6 13 6 3 3 8 8 9 9 8 9 11 13 15 14 13 13 13
4 1 2 3 3 0 4 5 2 1 3 2 2 1 0 0 0 1 1 1 1 1 0 1 2 2 2 1 1 2 2 1 2 2 3 3 3 2 1 3 1 3 4 2 2 2 2 3 1 4 5 4 3 2 0 2 4 4 2 3 3 4 5 3 4 3 1 1 2 3 3 11 5 2 3 7 6 7 8 8 10 12 13 14 14 14 14 13
2 2 0 5 3 1 5 3 2 2 0 2 1 0 0 0 1 0 1 0 0 0 1 1 2 2 1 1 1 2 3 2 3 3 3 3 2 1 2 5 3 1 3 1 2 1 1 2 1 5 5 3 3 3 2 1 3 2 1 2 3 2 3 4 4 3 1 3 2 1 4 10 5 2 4 6 5 7 9 10 13 13 12 13 13 13 13 14
2 3 1 5 4 1 3 1 1 2 3 2 2 1 1 1 2 2 1 2 2 1 1 1 2 1 1 1 2 2 3 2 2 2 1 2 2 0 1 4 2 1 1 2 2 1 1 1 1 3 6 6 5 5 5 3 0 2 2 1 2 3 5 2 2 2 1 5 6 3 8 9 3 4 9 12 12 13 13 13 14 14 14 14 14 14 15 16
2 0 2 5 5 4 3 3 4 2 2 1 2 3 1 1 2 2 2 2 2 2 1 1 1 1 1 2 1 1 2 1 2 2 2 1 3 1 2 3 2 0 1 1 1 0 2 1 1 0 3 5 6 7 4 2 2 1 0 2 4 4 5 2 1 2 2 5 6 5 9 12 10 11 16 17 16 16 17 16 15 16 16 17 16 15 16 16
2 1 2 4 6 6 2 1 4 4 2 2 1 2 1 1 2 1 2 2 1 1 0 1 0 1 2 1 0 2 2 1 1 2 1 2 3 2 1 2 2 0 1 2 4 3 2 0 2 5 6 6 9 9 2 3 2 4 3 5 6 5 4 3 2 2 4 2 2 7 12 17 19 18 18 17 17 17 17 16 17 17 18 17 16 16 16 15
2 1 1 1 2 3 3 3 3 3 2 3 2 1 2 2 3 1 1 2 0 1 0 0 1 1 1 1 0 1 2 1 1 1 2 3 3 3 2 1 2 4 3 2 3 3 4 2 4 6 8 11 13 12 5 4 5 9 8 7 6 4 5 6 6 8 2 2 7 11 10 13 19 20 19 19 19 18 17 17 17 18 18 17 17 17 19 18
1 2 1 1 1 0 1 1 2 4 2 1 2 1 1 1 2 2 2 1 1 0 0 0 1 3 5 4 2 1 1 1 2 3 2 2 2 3 3 1 2 5 4 2 2 3 5 3 4 4 7 12 12 12 9 5 6 7 9 10 7 5 7 10 13 11 3 3 13 16 14 15 18 21 21 20 18 17 17 17 16 18 19 19 19 21 21 21
2 1 1 2 0 2 1 1 3 5 3 2 1 1 2 3 4 4 2 1 2 2 1 2 4 4 4 4 3 2 2 2 3 4 2 2 1 1 2 0 1 4 3 2 2 1 4 3 2 2 5 12 12 11 8 5 4 6 9 10 7 8 11 11 13 12 7 11 17 20 20 19 17 19 20 18 15 13 13 14 16 20 21 20 21 23 22 19
1 2 1 3 3 1 1 2 3 4 1 0 1 2 3 4 5 3 1 2 1 1 1 3 5 3 3 4 4 4 6 5 2 4 3 1 2 2 2 2 2 2 3 2 1 1 1 2 0 3 3 9 8 6 4 1 3 6 10 10 6 6 7 7 9 9 7 10 15 15 16 15 13 14 14 13 11 11 13 16 19 21 21 21 23 22 19 18
2 3 3 4 2 1 2 2 2 3 0 1 2 2 1 4 6 3 1 1 2 3 5 5 3 1 2 3 4 7 7 5 3 4 4 3 3 3 3 2 4 3 1 1 0 1 1 2 2 5 4 6 2 6 8 6 3 3 7 9 6 3 3 4 6 6 6 9 11 9 8 10 10 10 12 13 13 14 15 18 19 20 22 24 23 18 17 19
3 2 2 4 2 1 0 1 1 1 2 2 2 2 1 2 3 3 1 1 1 1 3 6 5 2 1 2 5 7 5 4 5 5 3 3 2 2 1 1 5 5 4 4 1 1 3 1 1 3 2 6 4 7 10 9 4 2 3 5 4 4 4 4 4 6 8 7 6 7 8 11 13 14 17 19 19 18 17 16 17 20 22 22 19 17 19 22
Wind_Direction
78 79 81 85 91 98 110 118 118 113 107 104 104 106 103 98 93 95 90 79 92 76 58 37 24 16 10 5 358 357 10 40 52 44 40 9 352 353 345 340 343 349 354 359 19 41 45 38 33 47 65 47 13 343 25 23 36 54 79 93 146 177 198 181 172 190 168 180 196 187 160 141 216 236 161 75 49 62 303 307 303 311 306 276 272 239 168 169
79 78 80 84 90 97 112 122 125 121 115 110 105 106 103 108 109 100 91 77 80 24 23 1 354 334 321 332 333 342 340 20 42 35 18 3 0 358 347 350 352 353 1 10 34 53 65 32 21 47 53 43 353 357 25 4 43 77 105 96 192 192 196 178 164 179 174 162 173 184 174 171 213 188 147 188 256 1 222 255 318 311 299 322 156 154 161 169
79 78 78 80 86 93 110 125 133 133 126 124 106 98 101 107 117 118 94 68 39 352 3 349 337 313 303 302 311 325 323 19 41 14 359 5 3 358 356 359 6 6 7 15 54 76 93 84 63 64 53 49 6 4 31 12 30 94 105 91 221 202 188 209 171 182 203 146 148 183 175 195 236 173 161 192 196 237 223 220 201 248 246 201 169 158 162 172
80 78 76 73 75 85 107 124 140 148 139 130 99 89 95 84 96 116 96 247 295 334 356 1 1 341 310 291 298 302 327 38 35 341 355 6 2 358 358 2 15 17 5 26 97 101 99 81 65 63 63 42 347 15 40 352 10 77 85 147 201 170 103 263 191 173 176 118 139 155 129 219 240 166 190 159 150 253 242 220 199 211 206 187 191 177 173 179
81 78 73 62 58 79 111 131 147 154 145 132 121 95 73 50 62 98 167 243 274 307 342 18 30 28 24 357 303 275 7 50 338 342 1 8 7 2 360 5 16 23 13 69 113 107 93 67 58 51 56 41 347 25 33 332 63 71 22 165 169 140 117 138 98 115 108 80 107 133 152 204 172 176 196 162 187 233 226 219 210 210 189 180 185 185 184 190
82 77 75 59 55 86 120 140 152 154 153 149 138 92 56 44 65 85 226 264 275 285 288 295 22 31 42 44 41 67 83 90 325 348 2 9 15 16 12 9 13 22 18 113 117 100 79 48 55 49 53 51 9 48 2 319 59 89 44 25 20 128 134 135 71 112 105 99 132 159 184 151 138 263 205 181 224 222 207 229 228 229 196 183 180 180 188 197
85 78 80 68 67 88 110 127 147 157 154 149 128 75 50 63 80 73 298 302 283 279 261 237 339 13 20 30 48 62 83 82 335 352 3 11 18 23 27 21 20 14 12 102 103 99 86 55 73 104 79 65 47 76 359 338 43 85 111 348 354 67 87 22 78 123 108 131 185 157 124 140 181 245 59 210 235 227 248 273 237 217 186 179 180 186 196 202
95 89 88 77 74 84 98 111 133 150 147 144 114 52 52 81 94 83 52 0 319 294 252 238 310 335 333 343 45 54 55 333 341 355 7 11 18 24 34 34 27 50 81 66 84 120 97 72 108 141 80 69 120 84 11 17 36 70 130 226 18 36 36 40 69 86 103 140 166 118 134 233 207 208 324 239 242 235 274 25 150 165 163 176 189 199 203 207
107 104 94 88 81 80 92 104 120 135 141 139 73 42 65 89 101 88 65 45 30 352 267 274 328 324 318 351 84 66 349 336 350 357 10 11 15 25 36 36 32 74 81 61 68 95 98 101 165 161 124 132 107 60 7 51 37 109 121 135 96 36 1 40 52 58 94 134 109 122 209 273 242 235 266 250 244 200 115 90 132 149 163 189 199 206 207 211
118 115 102 101 95 80 92 103 116 129 131 126 29 48 86 101 102 86 77 64 59 62 65 47 8 351 313 24 72 74 329 351 3 4 14 12 12 26 33 31 34 63 73 60 55 57 91 148 156 135 121 116 87 42 9 83 124 118 98 96 87 30 313 29 68 266 12 141 116 146 248 266 282 287 261 262 242 136 123 131 176 173 189 204 205 214 213 217
128 125 118 118 110 92 99 112 125 134 143 229 0 63 105 113 105 90 81 64 53 49 40 39 25 33 70 75 80 88 351 359 12 16 17 16 22 32 34 29 34 54 70 65 59 67 95 126 134 121 102 92 90 46 23 91 107 91 100 95 30 347 302 70 121 247 321 93 138 151 239 246 291 238 240 256 208 145 156 181 204 203 212 215 214 221 220 225
136 131 131 135 120 91 90 120 137 138 207 326 31 100 121 120 106 92 67 39 26 16 356 352 3 48 66 63 76 63 3 7 17 29 30 30 37 43 43 37 39 50 77 74 60 79 92 118 113 91 67 115 105 49 68 86 78 88 90 97 340 357 340 266 279 195 262 196 173 161 271 253 190 228 244 242 162 143 163 205 220 220 224 225 224 231 230 233
140 136 135 144 135 86 64 98 128 171 300 10 73 114 129 126 99 70 12 15 14 11 15 23 11 234 62 54 53 18 12 16 22 48 48 45 48 51 50 47 49 54 75 80 65 77 90 102 99 94 96 100 105 193 103 53 50 126 51 84 328 2 323 266 27 117 164 182 188 157 300 273 228 238 246 199 155 142 185 224 226 223 228 231 229 237 239 238
140 141 138 151 145 58 37 16 16 357 47 64 83 120 138 135 79 321 342 4 358 356 12 24 20 75 79 100 253 17 18 30 41 49 39 42 48 51 51 50 56 59 69 77 73 80 95 97 92 93 77 81 122 94 48 18 26 91 30 52 53 0 276 267 20 157 159 174 171 108 270 271 271 260 240 188 166 163 205 226 224 226 228 230 232 235 243 242
144 154 162 213 310 336 330 52 51 63 76 51 69 119 141 111 53 336 343 349 358 2 329 354 6 78 77 62 284 18 25 43 40 27 20 22 26 24 36 48 56 60 64 69 70 74 83 85 78 73 30 29 63 69 36 2 17 39 4 314 342 195 265 300 294 184 152 10 19 94 247 271 275 273 251 185 174 182 214 230 225 229 230 230 236 235 243 248
153 166 197 242 265 240 314 47 77 70 38 28 66 110 114 105 96 65 13 353 9 18 16 357 1 71 91 42 351 22 24 28 20 17 19 24 24 11 10 59 61 57 60 56 58 57 53 62 67 61 63 30 52 77 50 22 354 1 57 271 281 234 291 316 314 350 66 59 346 206 243 278 269 268 249 174 185 196 221 239 231 230 234 231 235 237 242 252
167 193 201 224 218 203 338 26 95 81 52 63 81 100 114 112 108 104 34 28 45 22 38 28 8 67 84 13 18 12 351 355 4 15 28 31 32 30 37 90 53 26 40 36 35 27 26 41 76 50 55 48 57 85 54 2 309 324 26 279 265 241 279 310 306 341 30 67 258 218 230 259 260 259 239 192 194 202 223 240 236 233 236 233 236 240 242 246
190 213 174 194 217 212 1 42 114 108 94 90 91 98 108 105 95 89 17 334 260 314 359 10 19 73 39 355 359 313 315 337 6 18 22 25 29 33 43 58 32 2 0 21 28 23 14 23 61 55 33 22 33 73 98 261 236 245 278 277 302 279 242 277 277 295 29 312 252 236 247 258 264 264 254 222 195 204 225 236 239 240 237 237 238 239 242 243
230 203 142 163 238 201 94 120 139 130 114 102 99 101 105 95 79 54 45 49 6 307 297 329 23 104 256 319 313 310 322 0 19 21 16 9 1 4 27 38 42 43 40 28 14 19 28 25 44 62 18 350 24 120 156 205 190 202 231 207 248 282 265 255 259 250 84 302 263 240 250 263 271 270 262 241 198 208 232 239 245 247 241 241 239 240 243 242
276 141 136 136 158 145 123 139 160 157 144 136 83 7 59 69 31 10 34 46 69 145 193 266 73 103 334 319 322 325 337 46 34 25 15 3 353 351 9 21 30 46 53 26 331 4 78 61 58 159 200 227 230 182 141 129 166 163 155 189 234 260 273 266 271 271 161 301 265 237 263 275 274 273 267 238 194 213 233 240 246 244 242 240 238 243 243 240
163 139 135 132 138 153 179 184 194 201 210 242 291 338 171 150 27 322 25 37 108 160 47 255 206 63 311 300 332 335 305 60 30 22 15 2 3 15 339 23 47 38 13 280 290 344 63 78 170 219 204 197 207 162 125 101 122 127 158 211 259 239 258 276 276 285 358 357 273 295 310 290 282 281 275 213 183 221 224 227 241 241 243 244 239 245 245 246
152 136 115 105 104 99 119 110 209 223 233 255 271 78 129 153 122 134 131 92 292 345 39 8 12 339 293 289 341 345 44 45 7 4 6 1 20 44 330 45 81 98 348 337 338 14 41 98 225 226 170 121 76 102 117 127 129 117 151 186 277 253 273 297 321 349 5 340 291 337 325 294 292 292 284 214 198 231 222 219 236 239 243 245 239 244 249 256
155 132 99 85 74 68 72 52 3 267 236 240 170 115 114 113 110 105 97 97 326 334 26 33 51 342 329 357 357 12 62 57 318 336 353 0 27 59 66 68 81 91 6 3 134 108 52 235 227 189 138 116 81 65 88 95 123 164 168 191 275 298 13 298 320 354 311 260 285 316 306 287 298 313 303 268 230 261 256 237 245 240 242 246 245 248 249 251
172 156 107 74 50 47 48 30 12 68 139 150 123 120 120 105 95 83 78 88 311 313 20 77 150 153 353 14 1 26 87 89 213 321 349 13 81 34 82 113 83 67 9 0 131 133 182 224 148 117 124 143 165 325 81 88 323 265 206 200 235 285 224 243 297 330 314 307 285 306 303 284 310 335 302 310 310 286 276 264 263 247 242 253 261 259 248 244
186 184 193 280 12 19 14 14 54 97 106 115 118 121 113 90 63 62 77 71 329 307 325 233 153 153 165 16 0 22 123 71 157 303 348 33 94 6 65 126 87 117 235 339 93 108 179 204 134 118 96 121 173 249 195 153 312 307 241 207 192 303 270 266 310 336 343 352 349 358 342 294 313 314 274 305 342 301 278 261 265 260 248 248 254 255 251 248
194 202 236 254 296 341 348 1 99 109 96 109 122 121 102 78 59 91 84 57 329 293 325 244 38 30 292 353 353 27 87 348 287 338 16 35 58 109 84 331 57 153 208 165 83 142 175 62 87 137 122 94 117 250 231 148 81 324 269 192 138 34 292 283 303 345 357 300 304 39 55 269 306 301 273 316 328 297 289 265 262 265 257 243 242 250 253 251
204 217 237 253 277 317 336 348 158 155 37 141 132 113 94 86 63 210 72 39 326 271 68 289 1 37 334 329 347 74 93 305 320 30 30 27 11 104 75 296 77 130 187 119 9 250 155 92 61 98 99 97 118 257 215 138 99 282 232 128 66 293 278 268 215 181 241 283 322 16 125 242 294 278 272 330 314 296 298 281 269 263 255 249 245 248 249 248
212 225 238 253 267 289 316 331 278 248 309 178 151 109 84 74 281 265 81 59 308 3 72 324 1 35 353 344 20 76 254 314 61 330 358 37 27 59 53 232 168 156 124 130 270 276 140 179 203 153 113 176 217 205 175 143 117 252 205 192 288 277 239 183 144 177 288 355 321 323 53 267 274 268 301 351 306 295 291 277 272 265 256 251 250 250 248 249
216 231 243 255 267 283 294 299 280 274 315 179 160 113 59 291 293 51 75 116 291 38 67 354 11 339 344 3 13 24 344 359 75 299 339 47 40 47 76 163 133 127 68 103 215 239 168 220 208 165 166 225 225 182 157 157 212 263 220 216 48 75 89 101 113 143 32 9 264 274 10 11 276 281 312 340 253 262 265 263 263 264 264 257 255 256 254 253
234 247 260 267 274 288 287 285 272 253 204 176 166 146 305 310 40 62 44 251 293 1 260 357 303 322 15 26 342 0 33 351 329 329 353 36 12 37 96 160 102 113 347 15 200 234 317 304 204 160 188 201 177 147 158 179 239 320 357 350 29 49 59 68 74 102 63 322 255 259 312 68 300 286 259 221 222 220 237 267 273 271 274 267 258 258 258 257
260 265 273 276 273 279 287 295 260 222 180 161 166 205 322 359 68 90 233 247 267 329 354 19 322 13 38 104 288 357 23 340 332 4 21 2 356 18 54 82 55 62 359 353 322 298 344 351 242 261 213 145 104 51 41 195 281 11 33 13 342 339 30 36 356 48 72 278 260 268 294 143 227 268 252 238 251 231 221 254 269 271 274 272 268 263 260 260
283 277 275 276 261 250 260 271 225 185 156 155 160 55 63 46 31 160 254 303 349 321 7 1 319 20 16 354 22 342 333 343 10 50 56 19 12 10 46 171 185 16 341 300 316 329 309 231 262 320 247 123 94 5 340 351 21 38 49 45 17 342 5 2 328 358 215 244 233 284 314 258 229 252 258 261 265 254 233 234 246 257 265 269 272 273 271 270
25 3 334 303 232 224 218 205 173 152 151 160 147 47 77 80 265 225 271 319 330 322 34 34 318 322 321 330 340 310 292 330 25 50 121 97 36 351 290 194 169 91 305 242 330 349 325 294 336 18 297 68 119 138 313 321 18 38 75 88 76 34 8 322 296 316 289 263 263 298 318 288 276 265 246 247 255 254 242 235 238 247 257 265 273 283 289 282
44 42 47 79 108 142 145 140 143 144 155 158 83 54 75 124 237 227 284 266 261 343 20 73 338 330 334 301 284 286 284 298 14 41 9 24 35 296 266 251 179 119 108 120 259 75 318 298 321 123 272 349 115 155 164 146 70 58 161 123 125 142 137 272 254 277 293 296 296 306 278 232 268 289 246 235 249 262 258 253 257 260 261 269 284 288 284 277
53 58 65 81 88 97 112 120 131 148 164 120 63 68 117 224 250 218 247 254 274 337 292 114 65 18 328 314 308 322 156 275 352 43 358 21 183 213 216 217 204 135 119 175 259 146 192 264 283 316 294 76 74 236 117 102 71 280 165 103 138 175 149 205 204 195 276 323 297 271 237 225 239 285 283 279 285 280 273 271 275 273 273 284 288 279 274 273
62 72 69 68 67 73 90 105 126 156 158 89 65 79 189 223 237 180 206 248 146 191 272 342 48 65 303 311 333 356 20 269 334 15 302 242 212 205 195 208 193 143 133 168 224 139 326 280 299 345 357 61 128 240 83 64 210 107 109 166 225 177 118 114 274 341 66 336 277 232 257 278 307 295 292 331 328 301 309 317 294 279 287 297 280 273 273 271
61 82 68 48 44 62 80 91 128 149 107 83 93 204 219 224 184 177 192 213 219 157 94 335 293 211 271 301 311 327 350 304 324 355 272 268 249 193 174 217 104 134 160 167 224 189 149 282 304 44 61 346 229 207 23 24 110 105 166 224 214 96 86 99 304 345 32 269 269 251 261 282 314 298 314 354 325 305 322 321 306 296 293 287 274 272 273 271
87 91 66 35 31 48 62 73 121 124 80 74 108 240 223 199 171 175 186 193 237 81 97 216 251 207 201 238 282 287 310 280 320 354 250 266 271 177 140 121 48 30 253 134 85 146 115 286 305 30 194 304 355 68 348 355 60 101 189 202 100 131 268 55 125 324 341 294 285 298 284 270 240 241 306 327 305 304 313 310 308 303 294 287 283 281 281 282
123 92 39 19 24 32 54 95 105 79 68 85 224 256 219 228 259 201 190 205 158 110 158 227 251 26 181 180 214 252 213 221 238 342 244 242 269 140 111 149 116 15 326 93 129 239 96 115 288 289 226 302 0 143 244 306 33 44 38 7 43 151 184 179 156 172 207 282 291 317 332 279 239 204 235 284 291 300 302 304 304 296 291 292 291 291 292 292
124 76 327 353 28 43 81 99 69 58 72 149 203 220 257 278 275 255 242 245 175 157 217 219 192 249 227 206 219 233 136 203 181 184 240 245 279 332 41 91 134 130 312 39 98 251 67 126 254 296 314 287 272 213 198 183 148 85 96 222 325 120 149 241 253 150 142 208 258 306 308 272 258 175 217 270 286 289 291 295 291 287 293 296 293 295 297 294
97 57 292 340 31 63 94 70 44 59 105 166 209 215 259 265 237 306 311 314 153 226 201 177 176 194 207 221 260 219 145 193 186 198 247 241 251 302 19 33 148 157 135 62 83 171 100 156 219 294 307 251 239 236 194 181 165 157 181 196 183 140 125 268 288 272 117 177 205 206 287 278 278 117 224 270 285 289 296 296 288 291 295 297 297 295 295 295
80 80 281 3 27 153 84 63 23 83 121 179 231 221 305 43 123 306 320 55 63 257 102 119 177 185 175 166 216 188 161 197 201 204 235 222 208 214 1 356 300 145 115 122 243 239 148 118 179 265 263 249 261 309 70 173 154 144 172 178 151 133 132 161 251 259 169 213 199 117 257 274 288 85 274 288 291 292 304 300 294 296 293 293 296 294 295 295
99 178 320 31 21 105 79 56 321 356 18 246 278 251 208 83 135 326 315 233 227 228 11 294 213 196 211 183 126 170 195 209 188 188 226 234 224 230 328 344 324 123 94 126 239 256 131 95 356 275 285 311 322 346 13 55 108 130 263 135 148 160 139 158 197 199 179 232 244 52 265 270 298 15 291 296 304 304 306 301 297 298 296 297 297 298 302 302
143 192 22 24 13 88 108 170 233 293 277 303 10 319 257 209 180 171 226 240 221 174 179 245 212 179 207 143 108 183 207 218 209 217 230 216 229 222 6 342 329 113 98 193 184 189 235 179 44 324 324 332 342 350 343 341 85 197 245 226 188 133 96 108 172 113 287 234 204 224 268 268 300 350 316 311 316 315 309 306 307 308 309 311 312 314 313 311
107 35 327 357 25 74 129 181 152 160 240 42 5 285 266 268 217 186 203 223 207 183 189 264 230 135 102 100 78 219 224 244 263 308 14 240 263 308 38 339 333 125 247 249 121 137 230 202 135 208 298 301 306 312 311 287 253 209 153 244 234 174 144 176 184 113 259 238 177 196 266 281 299 313 311 311 314 314 311 312 315 313 312 314 318 319 315 314
99 28 316 332 19 60 71 106 110 120 155 133 315 283 186 226 277 236 181 205 189 164 186 321 217 82 71 100 53 283 271 282 328 336 338 259 267 287 318 321 358 94 253 31 45 68 103 280 211 193 209 233 255 267 287 74 308 289 277 236 223 207 176 135 94 196 218 226 204 228 259 283 295 300 305 309 311 311 312 315 315 311 312 314 316 314 312 313
118 157 160 296 349 36 41 24 67 88 156 180 202 241 198 241 295 337 182 218 213 135 137 83 142 156 170 172 196 267 267 326 38 265 246 237 255 285 274 198 42 0 344 14 23 80 91 303 243 200 226 245 255 270 310 25 301 282 282 264 235 209 169 159 218 236 180 39 279 258 256 279 291 298 304 307 309 311 313 315 313 309 310 314 316 315 316 317
121 175 141 121 268 265 62 32 94 93 85 162 163 188 211 260 277 235 209 301 1 289 201 15 275 219 192 174 155 223 282 320 267 244 241 244 280 334 344 70 41 354 355 21 356 97 123 253 246 185 252 264 267 279 289 293 274 267 276 278 264 213 184 197 234 242 180 226 267 273 279 284 289 296 300 301 304 308 310 310 307 306 310 316 319 320 319 320
82 112 355 21 53 181 141 47 113 106 94 108 127 210 186 192 239 240 197 66 359 316 188 237 273 253 206 184 146 175 237 249 274 266 226 204 259 339 333 314 62 357 8 79 354 98 146 241 257 131 284 281 275 278 279 270 270 274 278 278 263 232 218 216 240 251 233 237 258 274 284 284 283 284 288 294 299 302 304 306 308 309 314 321 322 320 321 323
127 167 201 43 60 108 46 33 97 106 88 93 200 238 177 178 223 244 179 150 219 277 188 215 256 255 206 188 167 209 222 190 215 261 185 146 301 227 221 220 148 26 10 91 5 332 183 265 278 97 314 288 282 307 323 229 231 275 290 291 281 259 248 234 245 258 254 252 260 271 282 283 277 275 281 289 298 305 310 315 316 315 320 324 322 321 324 328
144 151 151 111 86 351 3 20 96 115 178 256 208 221 195 201 213 202 183 194 174 190 189 186 198 149 105 170 203 243 242 181 188 243 189 184 244 214 213 211 140 125 43 120 55 48 157 269 13 58 344 286 314 5 332 295 263 276 299 303 303 301 273 239 230 224 223 255 277 287 291 290 293 301 303 303 308 314 318 321 320 319 323 322 319 321 329 329
141 101 111 108 89 304 53 53 57 112 232 240 198 197 215 238 225 181 182 298 62 160 202 177 162 135 78 212 229 249 251 204 217 246 206 183 185 143 139 91 112 129 165 163 140 103 130 137 38 54 311 276 323 344 315 316 354 17 311 298 289 297 283 262 279 269 233 234 283 299 291 295 308 319 318 318 322 324 325 326 322 319 318 316 317 327 332 328
Height
826 826 826 826 826 826 826 827 827 827 827 827 827 827 827 827 827 827 827 827 827 827 827 827 826 826 825 825 825 825 825 824 822 821 824 830 830 828 826 823 822 820 821 820 820 820 820 820 820 820 820 823 828 830 830 834 837 834 842 851 853 863 864 860 866 869 864 863 870 877 879 877 875 881 884 884 885 886 887 887 886 885 884 883 880 879 880 880
827 827 827 827 827 827 827 828 828 828 828 828 828 827 828 827 827 827 827 828 828 828 828 827 827 826 826 825 826 825 825 825 822 823 828 831 830 827 826 823 822 821 821 821 821 820 821 823 822 822 823 827 833 832 832 837 838 842 853 850 850 861 862 860 862 865 865 862 869 877 880 879 875 878 882 880 882 886 885 883 886 885 883 883 881 880 880 881
828 828 828 828 828 828 828 828 828 828 828 829 829 828 828 827 827 828 828 829 829 829 828 828 828 827 826 826 825 825 825 825 824 828 831 830 828 827 825 823 822 821 821 821 821 820 821 823 822 823 826 830 836 835 834 839 842 851 853 846 853 862 861 865 863 863 866 864 868 876 881 882 879 880 881 878 880 885 882 877 880 881 880 882 882 881 880 881
829 829 829 829 829 829 828 829 829 829 829 829 830 829 829 828 828 828 828 829 829 830 829 829 828 826 825 825 825 826 824 826 831 834 833 830 829 827 824 823 822 821 822 821 821 821 822 823 822 825 828 832 839 838 839 845 845 852 854 849 858 863 860 865 865 865 869 868 868 875 880 879 879 882 881 879 878 878 876 873 872 872 875 880 881 881 880 880
830 829 830 829 829 829 829 829 830 830 830 830 831 831 830 829 828 828 829 830 830 830 830 830 829 827 825 824 825 825 825 832 837 836 833 832 829 827 825 823 822 822 822 821 822 822 822 823 824 829 833 837 840 839 845 852 849 854 862 862 864 864 861 865 870 869 871 872 872 876 876 874 879 881 880 880 871 866 868 871 871 871 873 876 877 879 879 880
830 830 830 830 830 830 829 830 830 831 831 831 832 831 830 829 828 828 830 830 830 830 831 831 829 828 827 826 826 823 827 837 840 836 834 833 830 828 825 823 823 822 822 822 822 822 823 825 827 833 840 844 847 845 849 855 851 852 862 867 865 864 863 866 871 870 872 871 868 871 873 876 879 876 879 880 868 863 868 871 872 872 873 873 875 877 877 878
831 831 831 831 831 830 830 831 831 831 831 832 832 831 831 829 828 829 830 831 831 830 831 830 829 829 829 828 827 826 831 839 839 836 835 833 831 829 826 825 823 823 823 823 823 824 826 827 830 839 843 846 850 851 853 854 851 852 860 865 865 865 866 870 872 872 875 871 869 874 874 877 876 874 881 877 864 866 870 870 870 870 872 874 875 876 875 875
832 832 832 832 832 831 831 831 831 832 832 832 832 832 831 828 828 830 831 831 831 830 830 830 830 829 829 829 829 831 836 840 839 837 836 834 832 830 827 825 824 824 824 824 825 825 827 829 833 840 843 849 851 851 855 852 851 855 861 865 865 867 870 874 874 874 877 875 877 877 872 876 878 880 881 869 861 867 870 869 870 870 872 874 874 874 874 874
832 833 833 833 833 832 832 832 832 832 833 833 832 832 830 829 830 832 832 831 831 830 831 831 831 829 828 829 829 834 840 841 839 837 836 834 833 831 827 826 825 824 824 825 826 825 827 832 836 837 841 851 852 852 856 852 853 859 863 865 866 868 872 874 872 874 877 877 878 873 871 878 883 883 873 861 862 867 869 869 870 871 872 872 873 872 872 872
833 833 833 834 833 833 833 833 833 833 834 833 833 832 831 831 832 833 832 832 831 831 832 831 831 829 828 828 830 838 842 840 839 838 837 835 833 831 828 828 827 825 826 827 827 827 828 832 835 836 838 849 853 856 859 856 857 863 865 867 868 870 873 872 870 874 875 875 877 871 871 878 883 882 865 856 866 868 867 870 871 871 870 871 871 871 871 870
834 834 834 834 834 834 834 834 835 835 834 834 833 833 832 832 832 833 832 832 832 832 832 832 831 830 829 830 834 841 842 839 840 838 837 836 833 831 830 830 828 827 827 828 829 830 831 832 835 835 838 847 853 857 861 860 862 866 865 866 870 870 871 872 870 873 873 872 876 875 874 879 885 879 861 858 867 868 867 869 871 871 870 870 870 869 869 868
835 835 835 835 835 835 835 835 835 835 835 834 834 833 833 833 833 833 833 833 833 833 833 832 832 832 831 832 838 842 841 840 840 838 838 836 835 834 834 833 831 830 829 830 832 833 834 835 834 836 844 850 854 858 860 864 866 866 865 864 868 869 868 869 870 874 873 870 877 878 867 868 877 869 857 863 868 868 869 868 870 870 869 870 869 869 868 866
835 835 835 836 836 835 835 836 836 835 835 835 834 834 834 834 834 834 834 834 834 834 833 832 832 832 832 837 841 841 840 841 839 839 839 837 837 837 836 835 833 833 831 831 834 835 835 835 834 840 848 851 856 860 860 865 867 865 869 868 869 869 867 868 871 875 874 872 877 875 856 847 859 859 857 866 868 868 868 867 868 869 869 869 868 868 866 864
835 835 836 836 836 836 836 836 836 836 835 835 835 834 834 834 834 834 834 834 834 834 833 833 833 832 834 840 842 840 841 841 839 839 839 838 839 838 838 838 836 836 835 835 836 837 837 837 835 842 851 854 859 861 861 867 867 868 871 874 879 872 862 866 874 873 870 874 878 874 861 847 847 850 856 865 866 866 864 863 867 866 867 867 866 866 863 862
836 836 836 836 837 837 837 836 836 836 836 836 835 835 835 835 835 835 835 835 834 834 834 834 834 833 837 841 841 841 841 840 840 840 840 840 839 839 839 839 839 839 838 838 839 840 839 837 839 847 855 859 860 859 862 866 869 874 868 866 880 877 864 866 875 875 868 873 879 872 863 853 846 847 856 865 866 866 861 860 865 864 865 865 864 864 861 859
837 837 836 837 837 837 837 837 837 837 837 837 836 835 835 835 836 836 835 835 835 835 834 835 835 834 839 842 841 841 841 841 842 842 841 841 840 840 840 840 841 840 840 841 841 841 839 840 850 858 859 860 862 860 863 866 867 876 873 862 871 874 869 867 870 877 873 871 876 872 863 853 847 850 859 866 865 865 863 859 862 862 862 862 861 861 860 857
838 837 837 837 837 838 838 838 838 838 838 837 837 836 836 835 836 836 836 836 836 836 835 836 836 836 840 842 842 843 844 844 843 843 843 842 842 841 841 841 841 841 841 841 840 842 842 847 857 861 863 869 871 864 861 863 860 869 877 870 872 877 873 867 864 874 878 872 872 873 870 856 846 849 856 863 864 864 862 858 858 859 859 859 859 859 857 856
839 838 838 838 838 838 838 839 839 838 838 838 838 837 837 836 836 837 837 836 836 836 836 837 836 839 844 844 845 847 846 845 844 844 843 842 843 842 842 842 842 842 843 843 844 847 849 855 861 859 863 870 872 866 859 862 864 866 872 869 872 879 877 871 866 871 877 874 872 874 870 856 848 848 850 856 862 862 858 856 855 856 856 856 857 856 854 853
839 839 839 839 839 839 839 839 839 839 839 839 839 839 838 837 836 837 837 836 838 841 842 843 843 845 849 848 848 847 846 846 845 844 844 844 843 842 843 843 843 844 845 846 848 854 857 856 857 856 860 869 874 874 867 870 875 873 877 877 873 873 873 871 867 872 879 874 870 871 865 854 848 846 844 849 858 859 855 855 855 853 854 854 853 852 851 850
839 839 840 840 839 839 839 839 839 840 840 840 840 840 839 839 840 840 841 842 846 849 850 851 850 850 850 849 848 846 846 846 845 846 845 844 844 844 844 844 846 847 851 854 853 862 863 855 858 863 866 873 878 881 880 883 885 882 883 882 879 878 872 867 867 874 880 870 858 860 861 853 847 842 840 844 852 856 855 854 853 851 850 850 850 848 846 845
839 840 840 840 840 840 839 839 840 840 840 841 840 840 841 841 843 844 846 849 852 852 852 852 852 850 849 850 849 847 847 845 846 847 845 846 845 844 846 848 847 849 861 868 863 864 861 854 864 871 874 879 880 884 887 886 887 885 883 880 880 882 872 864 870 875 878 871 857 858 859 847 840 837 835 841 846 847 849 849 848 846 846 846 846 844 841 839
840 841 841 841 841 840 840 840 840 840 841 841 840 841 842 841 842 843 844 849 851 851 851 851 851 851 850 850 849 849 847 847 848 847 847 847 844 845 850 851 850 855 868 871 861 860 859 858 867 876 881 885 885 889 887 884 885 883 884 880 872 874 870 863 872 878 878 873 858 860 862 843 834 834 834 840 841 839 842 844 842 841 843 842 840 839 837 836
841 841 842 841 842 841 841 841 841 840 840 840 840 841 842 841 843 843 842 846 850 851 851 851 851 851 850 849 850 849 848 852 852 850 849 847 847 852 852 852 857 861 866 864 856 854 856 862 874 883 885 881 882 888 885 880 880 879 880 874 864 870 872 862 867 876 876 876 868 869 870 849 833 831 831 840 843 840 842 842 841 842 838 836 835 835 835 833
842 842 842 842 842 841 842 842 841 840 839 840 840 841 843 843 843 843 844 850 852 851 851 852 852 852 851 851 851 850 851 856 857 854 852 850 853 857 855 859 861 859 867 872 863 855 859 871 883 887 884 880 877 879 879 872 870 874 875 870 862 866 873 868 871 879 875 876 878 872 859 836 826 822 819 835 846 841 842 841 837 839 837 834 835 833 831 828
842 843 843 843 843 842 843 842 841 841 840 841 841 842 843 843 844 843 844 852 853 850 852 852 852 852 852 852 851 852 853 856 858 856 854 854 855 856 860 867 862 856 869 877 866 857 865 881 886 880 879 882 876 872 874 872 869 870 869 870 867 866 876 878 881 884 867 859 872 872 845 819 819 819 812 828 838 830 836 839 830 831 833 833 833 828 825 824
843 843 844 843 843 843 843 842 843 842 842 843 842 843 843 843 844 842 845 855 854 850 852 852 852 852 852 853 853 854 854 855 858 857 856 856 857 857 859 866 866 861 869 874 868 864 872 884 885 876 874 878 875 871 876 879 873 866 867 875 876 876 882 882 885 882 861 852 869 876 854 831 822 814 814 832 833 821 826 829 824 826 828 828 827 823 820 819
843 844 844 843 844 844 843 843 843 843 843 843 843 844 844 844 844 842 849 859 856 851 852 852 854 853 853 856 856 854 853 855 857 857 858 856 857 858 856 860 864 864 874 872 861 864 873 878 880 877 874 873 869 867 874 881 870 861 874 882 878 881 881 881 885 881 874 871 872 875 869 855 837 818 826 841 828 813 813 812 812 817 819 821 821 818 816 814
843 844 844 844 845 844 845 845 844 844 843 843 844 844 844 844 844 843 853 862 857 852 854 854 854 853 854 857 857 857 857 858 856 855 859 858 856 858 856 860 863 865 876 869 850 861 874 870 871 873 871 869 865 865 873 880 870 865 881 884 879 883 881 885 886 881 890 879 856 867 873 858 838 820 831 843 823 808 805 801 802 803 806 812 813 813 812 809
844 844 844 845 844 845 845 845 844 844 843 844 845 844 844 845 843 847 859 863 856 854 856 855 854 855 858 857 858 861 860 859 858 856 859 858 856 857 857 865 870 867 875 871 857 864 873 872 874 872 867 866 867 871 876 876 871 872 882 882 883 888 886 890 886 880 889 870 845 866 876 857 834 812 817 830 816 805 802 800 801 800 802 806 808 808 806 805
844 844 845 845 844 845 844 844 845 844 844 845 844 845 845 844 847 858 867 862 855 857 858 855 857 860 861 857 858 862 861 860 864 861 859 860 858 860 865 870 871 866 870 872 866 869 877 880 881 875 869 871 873 878 881 878 875 875 876 873 873 883 889 891 892 888 873 849 850 875 879 868 847 813 805 811 803 798 798 798 799 799 800 802 803 804 803 802
845 845 845 844 845 845 844 845 845 844 846 845 845 846 845 849 858 866 869 861 857 859 858 858 864 865 863 860 857 861 862 862 867 862 856 861 860 860 864 864 863 863 862 861 862 870 876 874 875 876 876 878 874 875 883 886 885 877 872 868 859 864 876 874 878 879 851 834 860 884 880 877 860 821 801 802 802 804 803 799 797 795 795 795 797 799 799 800
845 844 845 845 845 845 845 845 845 846 846 845 846 846 848 858 863 862 862 858 856 860 861 864 869 868 867 864 861 866 866 862 867 867 865 868 865 863 867 865 862 858 852 855 858 859 863 868 874 875 876 879 870 865 875 881 880 872 867 867 855 850 858 850 850 859 845 843 873 887 876 867 851 822 804 801 801 804 805 802 798 796 793 793 794 794 796 799
845 845 845 845 845 845 846 846 846 846 845 846 847 847 854 864 865 864 863 857 857 866 870 870 872 873 870 862 861 871 871 864 867 872 875 875 867 867 877 881 878 863 854 864 863 851 851 864 874 870 869 877 872 862 862 866 870 869 867 866 856 855 859 850 853 860 850 854 880 895 881 855 830 810 801 799 794 794 800 801 800 800 797 794 795 796 797 798
845 845 845 845 845 846 846 846 846 847 846 847 847 851 861 865 865 869 865 859 866 874 875 875 873 871 868 863 867 874 867 863 871 871 870 870 862 860 868 879 884 875 865 868 867 861 851 848 862 867 867 874 874 870 868 867 872 877 882 878 862 860 861 855 858 854 847 863 885 889 868 837 812 797 794 796 794 796 799 801 805 805 803 802 801 800 798 795
846 846 846 846 846 846 847 847 847 847 846 847 850 858 866 863 862 866 862 863 871 872 873 879 872 862 862 866 874 879 868 863 872 871 866 865 859 856 859 867 879 878 867 859 864 873 859 847 866 879 877 877 874 878 882 873 871 883 891 880 866 866 864 867 878 880 881 889 886 877 856 832 815 797 794 799 796 797 800 802 806 802 801 807 803 798 796 791
847 847 847 847 847 847 847 847 847 848 847 848 855 863 865 860 861 865 866 870 873 869 867 870 867 858 857 862 869 877 874 869 870 865 865 868 863 862 865 868 878 879 868 860 862 869 857 851 874 883 877 882 880 880 885 873 866 879 882 871 876 886 875 870 887 904 911 893 871 865 846 828 820 796 787 796 789 786 791 792 795 794 797 803 798 793 792 787
847 847 847 848 847 847 848 848 848 848 847 849 856 864 865 863 867 871 874 877 877 874 867 859 859 859 857 857 861 870 873 870 870 863 861 865 861 861 867 872 882 882 877 874 867 869 864 855 871 882 872 880 888 883 883 883 876 874 873 873 884 891 882 880 883 884 890 875 859 865 849 830 828 803 782 789 784 779 786 788 789 790 793 794 790 788 787 784
847 847 848 848 848 848 848 848 848 847 848 854 859 865 867 867 873 879 880 880 877 873 867 857 858 863 863 858 859 870 872 863 865 866 860 860 857 859 864 870 883 887 887 884 869 872 876 856 863 887 880 877 888 880 872 882 886 877 875 881 882 874 871 883 881 867 871 868 854 863 864 842 828 810 789 786 785 784 789 791 789 788 787 788 786 784 783 781
847 848 849 849 849 849 848 848 850 848 851 859 860 863 869 870 877 885 884 882 877 870 865 862 864 866 866 864 860 868 873 864 865 868 860 857 857 861 867 869 879 888 890 887 874 874 880 861 857 881 888 880 880 874 863 870 885 886 883 887 886 881 877 882 886 877 873 869 856 859 857 825 802 803 796 788 789 790 791 792 790 787 786 786 785 783 781 779
848 849 849 851 849 849 849 848 849 849 854 865 866 865 873 873 877 887 888 884 878 871 867 865 867 865 864 869 868 868 874 872 870 866 861 861 858 859 872 874 874 885 890 886 881 878 879 870 858 869 884 877 864 863 860 857 869 878 878 881 884 888 891 887 889 889 876 866 865 866 850 812 790 797 796 790 792 791 792 794 792 789 788 786 785 783 780 777
848 849 850 851 849 850 850 848 856 863 861 866 871 871 876 876 877 884 888 887 881 877 875 871 869 866 862 866 869 869 872 873 875 870 863 865 859 857 877 884 877 882 883 878 878 878 876 875 867 864 866 857 851 867 874 867 868 868 864 870 873 878 883 875 875 891 891 878 871 870 853 812 788 793 795 793 794 792 794 797 794 792 790 786 784 781 778 775
849 851 851 851 849 850 849 852 872 882 867 863 872 875 878 880 879 881 884 885 882 879 880 877 872 871 867 865 869 872 870 868 874 872 863 864 863 862 880 892 886 882 878 874 881 885 883 881 877 867 859 856 862 879 884 879 879 876 870 876 877 873 871 860 856 873 890 890 888 896 878 820 786 795 798 794 797 797 798 800 797 794 790 786 783 779 776 774
850 851 850 850 850 851 851 856 871 875 866 872 882 881 882 883 880 880 881 881 879 878 877 875 872 871 870 871 872 871 869 865 866 866 863 865 869 877 890 894 888 883 877 876 881 885 884 879 874 863 856 862 874 883 885 883 880 875 876 884 881 873 871 869 869 877 879 874 875 890 873 815 786 798 799 795 801 801 799 799 795 791 787 783 780 776 774 770
852 852 851 850 849 850 852 856 860 859 864 877 880 877 881 883 880 879 878 876 877 876 872 871 873 871 873 877 873 870 870 863 858 864 868 867 873 887 896 893 888 883 878 877 879 879 875 872 870 863 853 852 857 861 865 872 874 872 876 884 881 879 884 884 887 891 879 860 857 865 848 806 791 799 796 795 801 799 797 795 790 787 783 777 774 773 771 767
851 852 853 852 851 852 856 860 859 856 863 872 872 872 876 878 879 880 878 876 879 878 872 871 876 875 876 879 875 873 875 867 860 867 873 872 877 889 895 892 890 886 883 887 887 880 876 875 873 864 857 855 848 842 845 855 865 871 877 882 880 881 882 873 874 883 874 864 865 858 831 801 793 800 799 799 801 797 794 792 788 786 781 776 775 773 769 766
850 852 854 854 853 856 862 870 866 858 863 867 866 872 874 870 876 883 881 877 878 881 877 874 878 876 875 876 871 869 874 874 872 873 871 868 873 887 894 892 891 889 888 891 890 884 884 887 880 867 862 859 846 840 852 863 864 864 869 873 872 879 883 877 877 877 867 867 867 850 833 819 808 806 804 801 799 797 794 791 789 785 779 777 777 773 769 766
852 853 856 855 854 856 861 868 866 860 865 865 861 868 872 869 872 878 879 878 879 881 878 876 877 872 868 871 867 866 874 878 877 875 872 871 876 887 895 893 892 892 892 891 890 887 885 882 881 878 869 861 854 852 863 873 869 864 866 867 868 878 886 883 877 866 858 864 856 836 834 834 818 807 805 802 799 797 795 793 790 785 780 778 775 770 767 763
854 856 862 860 856 856 857 861 866 866 867 868 868 870 870 867 867 867 871 879 881 879 874 871 873 871 869 870 865 864 871 872 870 870 871 874 879 881 885 890 895 896 893 891 890 889 883 877 883 886 874 866 869 869 869 874 874 869 867 868 871 878 882 878 869 861 862 863 847 826 828 833 822 811 807 805 802 801 798 796 792 786 781 777 773 769 765 761
858 858 864 865 860 862 866 869 871 867 866 868 869 868 866 863 861 865 873 875 873 878 876 864 863 871 873 873 868 864 865 861 859 864 867 872 878 875 870 876 891 899 894 888 890 892 884 877 888 896 883 869 870 870 872 875 873 869 867 868 871 873 875 876 870 864 866 862 848 837 838 838 828 817 811 808 805 805 802 797 791 784 779 777 773 768 764 760
854 853 859 863 863 869 874 874 870 864 867 870 864 864 868 863 859 866 874 870 862 870 877 866 861 872 877 876 871 863 862 860 857 863 869 870 874 875 868 866 880 894 894 889 892 894 885 880 892 899 882 866 864 866 870 874 874 871 865 861 864 863 864 871 872 869 868 862 852 851 852 843 827 816 813 810 806 805 801 796 790 782 778 777 773 768 765 761
852 852 855 855 858 868 872 871 871 864 861 864 860 861 866 863 863 865 868 872 868 866 871 868 865 873 880 879 873 865 867 870 867 869 875 872 870 872 870 869 876 884 890 894 894 892 888 886 893 894 876 861 863 865 866 870 873 870 859 849 850 851 851 856 861 861 859 851 845 850 848 832 815 809 809 806 804 803 800 796 791 783 778 775 771 768 767 764
852 852 854 852 856 868 870 868 870 864 858 861 863 863 863 863 870 869 861 869 878 874 873 874 870 871 873 871 871 871 875 878 876 878 880 877 877 878 876 878 880 878 884 893 896 898 897 887 886 891 876 857 862 871 869 861 852 849 850 846 844 846 847 849 851 849 847 846 844 841 832 818 811 811 809 802 798 798 797 795 792 786 780 775 770 769 768 765